Vertical_Velocity
-0 -0 0 1 -1 1 -2 -1 -1 -2 -1 -1 -2 -2 -1 -1 -2 -1 0 1 -1 -2 -2 -2 -3 -3 -1 -2 -2 -1 -1 -2 -1
0 -1 -0 0 -1 -1 -1 -0 -1 -1 -1 -1 -1 -1 -1 -1 -1 -1 -2 -2 -3 -3 -4 -3 -3 -2 -3 -3 -2 -1 0 -0 2
2 -0 -1 0 -0 -0 -0 -0 -0 0 0 1 -0 -1 -1 -1 -2 -1 -1 -2 -3 -3 -1 -1 -1 -1 -0 1 2 1 1 -0 -0
1 -0 -1 -1 -0 -1 0 -0 -0 -1 -1 0 0 1 -1 -1 0 -2 -1 -2 -3 -3 -2 -1 -1 -1 -2 -3 -4 -2 -1 -1 1
-0 -0 0 -1 -1 -1 -1 1 -1 -1 -1 -1 0 -0 -0 -2 -2 -1 -1 -3 -3 -1 -0 -1 -1 -2 -2 -2 -2 -3 -3 -3 -1
-1 -1 -1 -1 0 -1 -1 1 -1 -1 -1 -0 -0 -1 -1 -3 -2 -2 -2 -3 -1 -2 -2 -2 -3 -4 -3 -3 -3 -3 -2 -2 -2
-1 -1 -1 0 -0 -0 -0 -1 -1 -0 -2 -2 -1 -1 -3 -2 -2 -4 -4 -3 -3 -2 -2 -2 -2 -3 -2 -2 -3 -2 -3 -2 -2
-1 -1 0 0 -0 -1 0 -1 -2 -2 -0 -0 -2 1 -3 -2 -4 -4 -3 -2 -2 -1 -3 -2 -3 -3 -3 -2 -3 -4 -4 -3 -4
-2 -0 -1 0 -1 -0 -0 -1 -0 -1 -0 -1 -1 1 -3 -4 -2 -2 -2 -2 -3 -2 -2 -0 -2 -3 -2 -2 -2 -2 -2 -4 -3
-0 -1 -1 -2 -0 0 -0 -1 0 -1 -1 -1 -2 -2 1 -5 -2 -1 -2 -2 -3 -3 -3 -1 0 -2 -2 -1 -1 -2 -2 -2 -3
-1 -1 -1 -1 -1 -0 -0 -0 0 -1 -1 -2 -2 -2 -2 0 -4 -3 -2 -3 -2 -3 -2 -3 -2 -1 -2 -4 -1 -2 -2 -2 -3
-1 -0 -1 -1 -1 -1 -1 -0 -1 -1 -1 -2 -0 -3 -3 -3 -1 -4 -4 -2 -3 -2 -1 -2 -3 -3 -4 -1 -4 -3 -4 -2 -2
-0 -1 -1 -1 -1 -1 -0 -0 -0 -1 -1 -1 -2 -2 -3 -4 -4 1 -3 -6 -4 -2 -2 -3 -1 -1 -1 -2 -2 -2 -3 -2 -3
-0 -0 -0 -1 -1 -1 -1 -1 -0 0 -2 0 -1 -3 -3 -4 -3 -4 -2 -1 -5 -3 -2 -3 -2 -2 -1 -2 -2 -3 -3 -3 -1
-1 -1 -1 -1 -1 -1 -1 -1 -0 -2 -1 -2 -2 -3 -1 -2 -3 -3 -4 -3 -2 -2 -4 -4 -2 -1 -3 -2 -3 -2 -2 -3 -2
-1 -0 -1 -1 -1 -1 -1 -1 -1 -2 -1 -2 -3 -1 -4 -1 -2 -2 -2 -3 -1 -1 0 -1 -5 -4 -0 -3 -2 -3 -3 -3 -2
-1 -0 -1 -1 -1 -1 0 -1 -2 -1 -2 -0 -2 -4 -6 -3 -2 -3 -5 -3 -1 -2 -0 -1 0 -3 -2 -0 -1 -1 -2 -4 -3
-2 -1 -1 0 -0 0 0 0 0 -2 -1 -1 -1 -1 -1 -3 -3 -1 -0 -1 -1 -2 -3 -2 -1 -2 -1 -3 -3 -1 -2 -2 -4
-1 -1 -1 -0 -0 -1 -1 -0 0 0 -1 -1 -1 -1 -0 -1 -1 -4 -4 -1 -1 -1 -1 -0 -1 -2 -3 1 -0 -2 -2 -2 -2
-1 -1 -1 -1 -1 -1 -1 -1 -1 -1 0 -0 -2 -2 -2 -3 -4 3 -0 2 -2 0 -4 -3 -3 -2 -3 -2 -3 -1 -1 -1 -3
Height
5885 5886 5886 5886 5886 5886 5886 5886 5885 5884 5884 5883 5882 5881 5879 5878 5875 5873 5871 5868 5864 5861 5858 5855 5851 5848 5845 5841 5837 5833 5830 5827 5824
5884 5885 5885 5885 5885 5885 5885 5885 5884 5884 5883 5882 5881 5879 5877 5876 5873 5871 5867 5864 5861 5857 5854 5850 5847 5842 5838 5835 5830 5826 5822 5819 5815
5883 5883 5884 5884 5884 5884 5884 5883 5883 5882 5881 5880 5879 5877 5875 5874 5871 5868 5864 5861 5857 5854 5850 5845 5841 5836 5832 5826 5821 5817 5812 5808 5804
5882 5882 5882 5882 5882 5882 5882 5881 5880 5880 5879 5878 5876 5874 5872 5870 5867 5864 5861 5857 5853 5849 5845 5840 5835 5830 5825 5819 5813 5808 5802 5797 5792
5880 5880 5880 5880 5880 5880 5879 5879 5878 5877 5876 5875 5873 5871 5869 5866 5863 5860 5856 5852 5848 5843 5838 5833 5827 5821 5815 5808 5802 5796 5791 5787 5784
5877 5877 5877 5877 5877 5877 5876 5875 5875 5874 5873 5871 5870 5867 5865 5862 5859 5855 5852 5847 5842 5837 5831 5825 5818 5812 5804 5798 5793 5789 5785 5781 5777
5874 5874 5874 5874 5874 5874 5873 5872 5871 5870 5869 5867 5866 5863 5860 5857 5854 5851 5846 5841 5836 5830 5824 5817 5810 5803 5797 5793 5788 5783 5780 5775 5771
5871 5871 5871 5871 5870 5870 5869 5868 5867 5866 5865 5863 5862 5859 5856 5853 5850 5846 5841 5836 5830 5824 5817 5810 5802 5796 5792 5788 5783 5779 5775 5770 5765
5866 5867 5867 5867 5866 5866 5865 5864 5863 5862 5861 5859 5857 5855 5851 5848 5844 5840 5836 5830 5824 5818 5811 5803 5796 5791 5788 5783 5779 5775 5771 5766 5761
5861 5862 5862 5862 5862 5861 5861 5860 5859 5857 5856 5855 5853 5850 5847 5844 5840 5835 5830 5824 5818 5811 5804 5798 5793 5789 5784 5780 5776 5772 5768 5763 5758
5856 5856 5857 5857 5857 5856 5856 5855 5854 5853 5851 5850 5848 5845 5842 5839 5835 5830 5825 5819 5812 5805 5799 5793 5789 5785 5780 5776 5773 5769 5765 5761 5757
5850 5851 5852 5852 5852 5851 5850 5850 5849 5848 5847 5845 5843 5840 5837 5833 5830 5824 5819 5813 5807 5801 5795 5791 5786 5781 5777 5773 5770 5766 5762 5759 5754
5846 5846 5847 5847 5846 5845 5845 5844 5843 5843 5842 5840 5837 5835 5832 5828 5824 5819 5813 5808 5803 5797 5793 5789 5784 5779 5774 5770 5767 5764 5760 5757 5753
5841 5841 5841 5841 5841 5840 5839 5838 5838 5838 5837 5835 5832 5830 5827 5823 5818 5814 5809 5803 5797 5793 5790 5786 5781 5776 5772 5768 5765 5761 5758 5754 5751
5837 5836 5836 5836 5835 5834 5834 5833 5833 5832 5831 5829 5827 5824 5821 5817 5813 5808 5803 5798 5794 5790 5787 5783 5778 5774 5770 5767 5763 5759 5756 5752 5750
5832 5832 5831 5830 5829 5829 5828 5828 5828 5827 5825 5823 5821 5819 5816 5812 5808 5803 5798 5794 5790 5787 5783 5780 5776 5772 5769 5764 5761 5757 5754 5751 5748
5827 5827 5826 5826 5824 5824 5823 5823 5822 5821 5820 5818 5816 5813 5809 5806 5802 5797 5793 5789 5786 5784 5780 5776 5773 5769 5766 5762 5758 5754 5751 5748 5746
5822 5822 5822 5821 5820 5819 5818 5817 5816 5815 5814 5812 5810 5807 5804 5800 5796 5792 5788 5784 5781 5779 5775 5772 5769 5766 5762 5759 5756 5752 5749 5746 5744
5817 5817 5816 5816 5815 5814 5813 5812 5810 5809 5808 5806 5804 5801 5798 5794 5791 5787 5782 5779 5776 5774 5771 5768 5765 5762 5759 5756 5753 5750 5747 5744 5741
5811 5810 5810 5810 5809 5808 5807 5805 5804 5803 5802 5800 5797 5794 5791 5788 5785 5781 5777 5774 5771 5769 5765 5763 5760 5758 5755 5752 5749 5747 5744 5741 5738